Location: Guayaquil
(2.1667°S, 79.9000°W)
Time: 15:08:27
(UTC-05:00)

Envisat - Visible Passes

Search period start: 19 November 2018 00:00
Search period end: 29 November 2018 00:00
Orbit: 764 x 766 km, 98.2° (Epoch: 19 November)

Date Brightness Start Highest point End Pass type
(mag) Time Alt. Az. Time Alt. Az. Time Alt. Az.
19 Nov 2.9 19:30:55 10° SSE 19:35:58 65° ENE 19:40:59 10° N visible
20 Nov 4.0 18:55:23 10° SE 18:59:19 23° ENE 19:03:13 10° NNE visible
20 Nov 5.3 20:34:18 10° SSW 20:38:03 21° WSW 20:41:48 10° NW visible
21 Nov 3.5 19:56:26 10° S 20:01:27 60° WSW 20:06:26 10° NNW visible
22 Nov 3.2 19:19:56 10° SSE 19:24:48 47° ENE 19:29:39 10° N visible
23 Nov 4.4 18:44:59 10° ESE 18:48:09 17° ENE 18:51:19 10° NE visible
23 Nov 4.8 20:22:35 10° SSW 20:26:54 28° WSW 20:31:12 10° NW visible
24 Nov 3.0 19:45:12 10° S 19:50:17 82° W 19:55:21 10° NNW visible
25 Nov 3.5 19:09:03 10° SE 19:13:38 34° ENE 19:18:11 10° NNE visible
25 Nov 5.9 20:49:54 10° SW 20:52:21 13° WSW 20:54:47 10° WNW visible
26 Nov 4.7 18:35:07 10° E 18:37:00 12° ENE 18:38:52 10° NE visible
26 Nov 4.3 20:11:04 10° S 20:15:45 38° WSW 20:20:26 10° NW visible
27 Nov 2.8 19:34:03 10° SSE 19:39:07 74° ENE 19:44:09 10° N visible
28 Nov 3.9 18:58:19 10° SE 19:02:28 26° ENE 19:06:36 10° NNE visible
28 Nov 5.5 20:37:45 10° SSW 20:41:12 19° WSW 20:44:40 10° WNW visible
